Location: C.E.K. Mees Observatory
(42.7003°N, 77.4088°W)
Time: 06:41:51
(UTC-04:00)

Vanguard 3 - Pass Details

Date: 23 June 2018
Orbit: 508 x 3264 km, 33.3° (Epoch: 24 September)

Event Time Altitude Azimuth Distance (km) Brightness Sun altitude
Rises 07:37:23 0° 266° (W) 3,947 10.1 20.2°
Reaches altitude 10° 07:39:52 10° 258° (WSW) 3,277 9.7 20.6°
Maximum altitude 07:47:41 39° 193° (SSW) 2,539 9.7 22.0°
Drops below altitude 10° 08:00:32 10° 133° (SE) 5,355 11.9 24.3°
Sets 08:05:55 0° 127° (SE) 6,729 12.5 25.3°
